GW6936 Weather Reports


time (UTC)temp
C
wind
direction
speed
KPH
gust
KPH
rain 1hr
cm
rain 24hr
cm
rain mn
cm
humidity
%
barometer
mb
20260509000427 19 171 0.0 1.6 0.00 0.00 0.00 38 1046.6
20260508235922 19 219 1.6 1.6 0.00 0.00 0.00 37 1046.8
20260508235421 19 202 3.2 4.8 0.00 0.00 0.00 37 1046.9
20260508234917 20 199 1.6 6.4 0.00 0.00 0.00 38 1046.9
20260508234414 20 188 4.8 4.8 0.00 0.00 0.00 36 1047.0
20260508233912 20 330 1.6 4.8 0.00 0.00 0.00 38 1046.9
20260508233411 20 185 3.2 3.2 0.00 0.00 0.00 38 1047.0
20260508232908 21 208 4.8 4.8 0.00 0.00 0.00 37 1047.3
20260508232404 21 289 3.2 11.3 0.00 0.00 0.00 35 1047.2
20260508231902 21 243 3.2 6.4 0.00 0.00 0.00 34 1047.1
20260508231359 21 184 1.6 11.3 0.00 0.00 0.00 37 1047.3
20260508230855 21 182 3.2 11.3 0.00 0.00 0.00 37 1047.1
20260508230352 21 103 3.2 6.4 0.00 0.00 0.00 35 1047.1
20260508225849 21 166 1.6 6.4 0.00 0.00 0.00 36 1047.3
20260508225345 21 258 0.0 9.7 0.00 0.00 0.00 34 1046.9
20260508224844 22 77 3.2 11.3 0.00 0.00 0.00 35 1047.3
20260508224341 22 224 1.6 4.8 0.00 0.00 0.00 33 1047.2
20260508223838 21 251 0.0 4.8 0.00 0.00 0.00 35 1047.1
20260508223335 21 136 3.2 11.3 0.00 0.00 0.00 33 1047.3
20260508222833 22 241 1.6 9.7 0.00 0.00 0.00 33 1047.2
20260508222330 22 209 4.8 4.8 0.00 0.00 0.00 34 1047.1
20260508221827 21 169 1.6 11.3 0.00 0.00 0.00 38 1047.1
20260508221322 21 29 3.2 17.7 0.00 0.00 0.00 33 1046.8
20260508220819 22 177 9.7 16.1 0.00 0.00 0.00 33 1047.0
20260508220315 22 313 4.8 9.7 0.00 0.00 0.00 33 1047.1
20260508215812 22 293 4.8 6.4 0.00 0.00 0.00 36 1047.0
20260508215308 22 250 3.2 11.3 0.00 0.00 0.00 33 1047.3
20260508214806 22 261 4.8 12.9 0.00 0.00 0.00 33 1046.8
20260508214302 22 167 0.0 3.2 0.00 0.00 0.00 40 1047.0
20260508213759 22 198 3.2 9.7 0.00 0.00 0.00 36 1046.8
20260508213256 22 165 6.4 11.3 0.00 0.00 0.00 35 1046.7
20260508212752 22 190 0.0 9.7 0.00 0.00 0.00 36 1046.4
20260508212248 22 272 3.2 16.1 0.00 0.00 0.00 37 1046.8
20260508211744 22 145 11.3 12.9 0.00 0.00 0.00 30 1046.8
20260508211240 21 146 9.7 14.5 0.00 0.00 0.00 34 1047.3
20260508210738 22 157 16.1 22.5 0.00 0.00 0.00 31 1047.4
20260508210235 22 195 3.2 4.8 0.00 0.00 0.00 35 1047.4
20260508205732 22 168 3.2 11.3 0.00 0.00 0.00 38 1047.6
20260508205228 21 160 3.2 11.3 0.00 0.00 0.00 34 1047.6
20260508204724 22 171 4.8 20.9 0.00 0.00 0.00 37 1047.5
20260508204221 22 198 14.5 22.5 0.00 0.00 0.00 32 1047.8
20260508203717 22 43 3.2 6.4 0.00 0.00 0.00 35 1047.6
20260508203213 22 230 3.2 20.9 0.00 0.00 0.00 35 1047.7
20260508202710 22 296 3.2 11.3 0.00 0.00 0.00 35 1048.0
20260508202207 22 223 4.8 9.7 0.00 0.00 0.00 34 1048.0
20260508201704 22 211 6.4 11.3 0.00 0.00 0.00 35 1048.2
20260508201200 22 289 8.0 12.9 0.00 0.00 0.00 35 1048.4
20260508200657 22 197 3.2 20.9 0.00 0.00 0.00 37 1048.4
20260508200153 22 209 9.7 12.9 0.00 0.00 0.00 33 1048.2
20260508195650 22 298 8.0 11.3 0.00 0.00 0.00 33 1048.3
20260508195146 22 329 4.8 17.7 0.00 0.00 0.00 36 1048.2
20260508194643 22 208 6.4 11.3 0.00 0.00 0.00 36 1048.3
20260508194140 22 181 6.4 11.3 0.00 0.00 0.00 35 1048.2
20260508193637 21 181 6.4 24.1 0.00 0.00 0.00 36 1048.2
20260508193133 22 250 3.2 9.7 0.00 0.00 0.00 37 1048.0
20260508192630 22 179 4.8 12.9 0.00 0.00 0.00 34 1048.2
20260508192128 22 231 8.0 12.9 0.00 0.00 0.00 38 1048.5
20260508191624 22 170 6.4 11.3 0.00 0.00 0.00 34 1048.4
20260508191121 22 208 8.0 16.1 0.00 0.00 0.00 38 1048.6
20260508190619 22 177 4.8 12.9 0.00 0.00 0.00 39 1048.4
20260508190114 22 134 9.7 12.9 0.00 0.00 0.00 37 1048.5
20260508185611 21 278 3.2 4.8 0.00 0.00 0.00 38 1048.7
20260508185109 22 169 6.4 6.4 0.00 0.00 0.00 33 1048.8
20260508184606 22 346 4.8 14.5 0.00 0.00 0.00 37 1048.8
20260508184103 22 179 4.8 12.9 0.00 0.00 0.00 39 1048.8
20260508183559 22 341 9.7 12.9 0.00 0.00 0.00 34 1049.0
20260508183055 21 155 6.4 12.9 0.00 0.00 0.00 32 1049.0
20260508182552 21 179 14.5 16.1 0.00 0.00 0.00 36 1049.2
20260508182049 21 157 16.1 29.0 0.00 0.00 0.00 35 1049.5
20260508181549 22 321 3.2 20.9 0.00 0.00 0.00 38 1049.9
20260508181048 21 157 6.4 9.7 0.00 0.00 0.00 40 1049.8
20260508180544 21 279 1.6 16.1 0.00 0.00 0.00 39 1049.8
20260508180040 21 283 4.8 14.5 0.00 0.00 0.00 41 1049.8
20260508175537 20 133 12.9 16.1 0.00 0.00 0.00 37 1049.9
20260508175035 20 155 9.7 17.7 0.00 0.00 0.00 37 1050.0
20260508174532 21 168 9.7 17.7 0.00 0.00 0.00 37 1050.3
20260508174029 21 75 6.4 11.3 0.00 0.00 0.00 36 1050.5
20260508173526 21 126 6.4 11.3 0.00 0.00 0.00 37 1050.4
20260508173021 21 143 1.6 17.7 0.00 0.00 0.00 43 1050.5
20260508172519 21 341 3.2 12.9 0.00 0.00 0.00 41 1050.8
20260508172015 21 181 1.6 12.9 0.00 0.00 0.00 43 1050.8
20260508171512 20 351 3.2 12.9 0.00 0.00 0.00 39 1050.6
20260508171008 20 174 4.8 12.9 0.00 0.00 0.00 44 1050.9
20260508170506 19 141 4.8 24.1 0.00 0.00 0.00 43 1051.0
20260508170003 21 172 6.4 14.5 0.00 0.00 0.00 40 1051.0
20260508165500 20 189 1.6 3.2 0.00 0.00 0.00 42 1051.0
20260508164956 21 151 8.0 6.4 0.00 0.00 0.00 38 1051.4
20260508164453 21 242 4.8 9.7 0.00 0.00 0.00 37 1051.4
20260508163950 21 187 0.0 4.8 0.00 0.00 0.00 42 1051.7
20260508163448 21 210 0.0 3.2 0.00 0.00 0.00 45 1051.7
20260508162943 21 254 1.6 9.7 0.00 0.00 0.00 40 1051.7
20260508162441 21 183 8.0 9.7 0.00 0.00 0.00 41 1051.8
20260508161938 20 228 1.6 4.8 0.00 0.00 0.00 44 1051.7
20260508161435 20 171 1.6 9.7 0.00 0.00 0.00 44 1052.0
20260508160932 20 190 1.6 6.4 0.00 0.00 0.00 45 1051.8
20260508160431 20 176 6.4 12.9 0.00 0.00 0.00 41 1052.0
20260508155927 20 349 1.6 9.7 0.00 0.00 0.00 41 1052.0
20260508155424 19 209 4.8 12.9 0.00 0.00 0.00 45 1052.3
20260508154921 20 160 9.7 14.5 0.00 0.00 0.00 41 1052.2
20260508154419 20 216 3.2 6.4 0.00 0.00 0.00 38 1052.2
20260508153915 20 206 1.6 3.2 0.00 0.00 0.00 43 1052.0
20260508153412 20 177 9.7 22.5 0.00 0.00 0.00 36 1052.3
20260508152908 20 269 4.8 6.4 0.00 0.00 0.00 42 1052.5
20260508152405 19 254 4.8 11.3 0.00 0.00 0.00 44 1052.8
20260508151901 19 282 4.8 9.7 0.00 0.00 0.00 42 1052.6
20260508151358 18 216 6.4 16.1 0.00 0.00 0.00 42 1052.6
20260508150854 18 284 11.3 12.9 0.00 0.00 0.00 40 1052.4
20260508150351 19 284 1.6 6.4 0.00 0.00 0.00 42 1052.5
20260508145847 19 197 6.4 11.3 0.00 0.00 0.00 43 1052.4
20260508145344 19 116 3.2 9.7 0.00 0.00 0.00 44 1052.7
20260508144840 18 180 9.7 14.5 0.00 0.00 0.00 42 1052.7
20260508144339 18 193 4.8 9.7 0.00 0.00 0.00 41 1052.3
20260508143836 18 166 6.4 9.7 0.00 0.00 0.00 44 1052.4
20260508143333 18 178 1.6 16.1 0.00 0.00 0.00 48 1052.4
20260508142830 18 208 1.6 3.2 0.00 0.00 0.00 54 1052.6
20260508142326 17 119 3.2 14.5 0.00 0.00 0.00 46 1052.6
20260508141822 18 170 3.2 11.3 0.00 0.00 0.00 48 1052.6
20260508141320 17 118 1.6 4.8 0.00 0.00 0.00 47 1052.5
20260508140817 17 180 3.2 6.4 0.00 0.00 0.00 48 1052.8
20260508140314 17 185 0.0 6.4 0.00 0.00 0.00 51 1052.6
20260508135810 17 329 1.6 6.4 0.00 0.00 0.00 50 1052.6
20260508135306 16 160 4.8 11.3 0.00 0.00 0.00 51 1052.7
20260508134802 16 243 3.2 6.4 0.00 0.00 0.00 47 1052.9
20260508134259 16 174 8.0 9.7 0.00 0.00 0.00 50 1052.9
20260508133756 16 211 0.0 3.2 0.00 0.00 0.00 56 1052.9
20260508133254 15 200 0.0 4.8 0.00 0.00 0.00 58 1052.8
20260508132751 15 261 4.8 6.4 0.00 0.00 0.00 51 1052.6
20260508132248 14 222 1.6 4.8 0.00 0.00 0.00 61 1052.8
20260508131744 14 289 6.4 6.4 0.00 0.00 0.00 57 1052.5
20260508131240 14 276 3.2 3.2 0.00 0.00 0.00 64 1052.5
20260508130737 13 168 1.6 1.6 0.00 0.00 0.00 67 1052.4
20260508130235 12 167 0.0 0.0 0.00 0.00 0.00 67 1052.6
20260508125730 11 167 3.2 3.2 0.00 0.00 0.00 69 1052.6
20260508125226 11 167 1.6 3.2 0.00 0.00 0.00 69 1052.6
20260508124725 10 168 3.2 3.2 0.00 0.00 0.00 72 1052.6
20260508124222 10 168 3.2 4.8 0.00 0.00 0.00 74 1052.5
20260508123720 9 170 4.8 4.8 0.00 0.00 0.00 75 1052.8
20260508123218 8 172 4.8 6.4 0.00 0.00 0.00 77 1052.5
20260508122713 8 138 6.4 6.4 0.00 0.00 0.00 76 1052.7
20260508122210 8 148 3.2 4.8 0.00 0.00 0.00 77 1052.7
20260508121708 8 148 6.4 6.4 0.00 0.00 0.00 76 1052.3
20260508121207 8 281 4.8 4.8 0.00 0.00 0.00 76 1052.7
20260508120703 7 284 0.0 3.2 0.00 0.00 0.00 82 1052.5
20260508120202 7 285 3.2 4.8 0.00 0.00 0.00 81 1052.5
20260508115659 6 289 1.6 1.6 0.00 0.00 0.00 88 1052.5
20260508115156 6 290 0.0 0.0 0.00 0.00 0.00 92 1052.6
20260508114653 6 290 0.0 0.0 0.00 0.00 0.00 95 1052.4
20260508114149 5 290 0.0 0.0 0.00 0.00 0.00 97 1052.6
20260508113646 5 290 0.0 0.0 0.00 0.00 0.00 97 1052.3
20260508113144 4 290 0.0 0.0 0.00 0.00 0.00 97 1052.4
20260508112640 4 290 0.0 0.0 0.00 0.00 0.00 97 1052.2
20260508112137 3 290 0.0 0.0 0.00 0.00 0.00 97 1051.9
20260508111634 3 290 0.0 0.0 0.00 0.00 0.00 97 1052.1
20260508111131 3 291 0.0 0.0 0.00 0.00 0.00 97 1052.2
20260508110629 3 290 0.0 0.0 0.00 0.00 0.00 97 1051.8
20260508110125 2 290 0.0 0.0 0.00 0.00 0.00 97 1051.9
20260508105625 2 290 0.0 0.0 0.00 0.00 0.00 97 1051.9
20260508105123 2 290 0.0 0.0 0.00 0.00 0.00 97 1051.7
20260508104620 2 290 0.0 0.0 0.00 0.00 0.00 97 1052.0
20260508104117 2 290 0.0 0.0 0.00 0.00 0.00 97 1051.6
20260508103614 2 290 0.0 0.0 0.00 0.00 0.00 97 1051.7
20260508103111 2 290 0.0 0.0 0.00 0.00 0.00 97 1051.6
20260508102609 2 290 0.0 0.0 0.00 0.00 0.00 97 1051.7
20260508102106 2 290 0.0 0.0 0.00 0.00 0.00 97 1051.7
20260508101604 2 290 0.0 0.0 0.00 0.00 0.00 97 1051.5
20260508101101 2 290 0.0 0.0 0.00 0.00 0.00 97 1051.7
20260508100558 2 290 0.0 0.0 0.00 0.00 0.00 97 1051.4
20260508100055 2 290 0.0 0.0 0.00 0.00 0.00 97 1051.4
20260508095552 3 290 0.0 0.0 0.00 0.00 0.00 96 1051.7
20260508095049 3 290 0.0 0.0 0.00 0.00 0.00 97 1051.4
20260508094546 2 290 0.0 0.0 0.00 0.00 0.00 96 1051.6
20260508094043 2 290 0.0 0.0 0.00 0.00 0.00 97 1051.6
20260508093540 2 290 0.0 0.0 0.00 0.00 0.00 97 1051.6
20260508093038 3 290 0.0 0.0 0.00 0.00 0.00 96 1051.6
20260508092535 3 290 0.0 0.0 0.00 0.00 0.00 97 1051.5
20260508092034 3 290 3.2 1.6 0.00 0.00 0.00 97 1051.7
20260508091530 3 290 3.2 3.2 0.00 0.00 0.00 97 1051.4
20260508091027 3 290 0.0 0.0 0.00 0.00 0.00 97 1051.7
20260508090525 3 290 0.0 0.0 0.00 0.00 0.00 97 1051.7
20260508090022 3 290 0.0 0.0 0.00 0.00 0.00 96 1051.7
20260508085518 3 290 0.0 0.0 0.00 0.00 0.00 97 1051.8
20260508085015 3 290 0.0 0.0 0.00 0.00 0.00 97 1051.7
20260508084512 3 290 0.0 0.0 0.00 0.00 0.00 96 1051.8
20260508084010 3 290 0.0 0.0 0.00 0.00 0.00 96 1051.7
20260508083506 3 290 0.0 0.0 0.00 0.00 0.00 96 1051.9
20260508083002 3 290 0.0 0.0 0.00 0.00 0.00 96 1051.9
20260508082459 3 290 0.0 0.0 0.00 0.00 0.00 96 1051.7
20260508081957 3 290 0.0 0.0 0.00 0.00 0.00 96 1051.7
20260508081454 3 290 0.0 0.0 0.00 0.00 0.00 96 1051.9
20260508080949 3 290 0.0 0.0 0.00 0.00 0.00 96 1051.9
20260508080448 3 290 0.0 0.0 0.00 0.00 0.00 96 1051.6
20260508075944 3 290 0.0 0.0 0.00 0.00 0.00 96 1051.7
20260508075442 3 290 0.0 0.0 0.00 0.00 0.00 96 1051.8
20260508074939 3 290 0.0 0.0 0.00 0.00 0.00 96 1051.7
20260508074437 3 290 0.0 0.0 0.00 0.00 0.00 96 1051.8
20260508073933 3 290 0.0 0.0 0.00 0.00 0.00 96 1051.6
20260508073431 3 290 0.0 0.0 0.00 0.00 0.00 96 1051.8
20260508072928 3 290 0.0 0.0 0.00 0.00 0.00 96 1051.7
20260508072424 3 290 0.0 0.0 0.00 0.00 0.00 96 1051.8
20260508071921 3 290 0.0 0.0 0.00 0.00 0.00 96 1051.9
20260508071419 3 290 0.0 0.0 0.00 0.00 0.00 96 1051.8
20260508070917 3 290 0.0 0.0 0.00 0.00 0.00 96 1051.6
20260508070414 3 290 0.0 0.0 0.00 0.00 0.00 95 1051.7
20260508065912 4 290 0.0 0.0 0.00 0.00 0.00 95 1051.6
20260508065410 4 290 0.0 0.0 0.00 0.00 0.00 95 1051.7
20260508064908 4 290 0.0 0.0 0.00 0.00 0.00 95 1051.8
20260508064405 4 290 0.0 0.0 0.00 0.00 0.00 95 1052.0
20260508063903 4 290 0.0 0.0 0.00 0.00 0.00 95 1051.9
20260508063400 3 290 0.0 0.0 0.00 0.00 0.00 95 1051.8
20260508062857 3 290 0.0 0.0 0.00 0.00 0.00 95 1051.9
20260508062355 4 290 0.0 0.0 0.00 0.00 0.00 95 1052.0
20260508061852 3 290 0.0 0.0 0.00 0.00 0.00 95 1052.0
20260508061349 3 290 0.0 0.0 0.00 0.00 0.00 95 1052.0
20260508060845 3 290 0.0 0.0 0.00 0.00 0.00 95 1051.9
20260508060344 3 290 0.0 0.0 0.00 0.00 0.00 95 1051.9
20260508055844 3 290 0.0 0.0 0.00 0.00 0.00 95 1052.1
20260508055342 3 290 0.0 0.0 0.00 0.00 0.00 95 1052.1
20260508054837 3 290 0.0 0.0 0.00 0.00 0.00 94 1052.2
20260508054335 3 290 0.0 1.6 0.00 0.00 0.00 94 1052.1
20260508053832 3 290 0.0 0.0 0.00 0.00 0.00 94 1052.2
20260508053330 3 290 0.0 0.0 0.00 0.00 0.00 94 1052.2
20260508052827 3 290 0.0 0.0 0.00 0.00 0.00 93 1052.1
20260508052324 3 290 0.0 0.0 0.00 0.00 0.00 94 1052.1
20260508051820 3 290 0.0 0.0 0.00 0.00 0.00 93 1052.4
20260508051316 4 290 0.0 0.0 0.00 0.00 0.00 94 1052.4
20260508050812 5 290 0.0 0.0 0.00 0.00 0.00 94 1052.1
20260508050309 5 290 0.0 0.0 0.00 0.00 0.00 93 1052.0
20260508045805 5 290 0.0 0.0 0.00 0.00 0.00 94 1051.9
20260508045306 5 290 0.0 0.0 0.00 0.00 0.00 93 1052.1
20260508044800 5 290 0.0 0.0 0.00 0.00 0.00 93 1052.1
20260508044257 5 290 0.0 0.0 0.00 0.00 0.00 93 1052.1
20260508043753 4 290 0.0 0.0 0.00 0.00 0.00 93 1052.1
20260508043250 4 290 0.0 0.0 0.00 0.00 0.00 92 1051.9
20260508042747 4 290 0.0 0.0 0.00 0.00 0.00 92 1051.9
20260508042244 4 290 0.0 0.0 0.00 0.00 0.00 92 1052.1
20260508041741 4 290 0.0 0.0 0.00 0.00 0.00 92 1052.1
20260508041238 4 290 0.0 0.0 0.00 0.00 0.00 91 1051.9
20260508040734 4 290 0.0 0.0 0.00 0.00 0.00 91 1051.9
20260508040231 5 290 0.0 0.0 0.00 0.00 0.00 90 1052.0
20260508035729 5 290 0.0 0.0 0.00 0.00 0.00 89 1051.8
20260508035226 5 290 0.0 0.0 0.00 0.00 0.00 89 1051.8
20260508034722 5 290 0.0 0.0 0.00 0.00 0.00 90 1052.1
20260508034220 5 290 0.0 0.0 0.00 0.00 0.00 89 1051.9
20260508033717 5 290 0.0 0.0 0.00 0.00 0.00 87 1052.0
20260508033215 6 290 0.0 0.0 0.00 0.00 0.00 86 1052.1
20260508032712 6 290 0.0 0.0 0.00 0.00 0.00 86 1052.0
20260508032209 6 290 0.0 0.0 0.00 0.00 0.00 85 1052.1
20260508031706 6 290 0.0 0.0 0.00 0.00 0.00 83 1052.2
20260508031202 6 290 0.0 0.0 0.00 0.00 0.00 83 1052.1
20260508030659 6 290 0.0 0.0 0.00 0.00 0.00 81 1052.1
20260508030156 6 290 0.0 0.0 0.00 0.00 0.00 81 1052.3
20260508025653 6 290 0.0 0.0 0.00 0.00 0.00 82 1052.0
20260508025150 6 290 0.0 0.0 0.00 0.00 0.00 81 1052.0
20260508024645 7 290 0.0 0.0 0.00 0.00 0.00 79 1051.7
20260508024143 7 290 0.0 0.0 0.00 0.00 0.00 77 1051.8
20260508023639 7 290 0.0 0.0 0.00 0.00 0.00 74 1051.6
20260508023137 7 290 0.0 0.0 0.00 0.00 0.00 70 1052.0
20260508022632 7 290 0.0 0.0 0.00 0.00 0.00 76 1052.0
20260508022130 7 290 0.0 0.0 0.00 0.00 0.00 75 1051.8
20260508021625 8 290 0.0 0.0 0.00 0.00 0.00 67 1052.0
20260508021121 7 290 0.0 0.0 0.00 0.00 0.00 69 1051.8
20260508020620 7 290 0.0 0.0 0.00 0.00 0.00 75 1051.7
20260508020117 8 290 0.0 0.0 0.00 0.00 0.00 73 1051.6
20260508015614 7 290 0.0 0.0 0.00 0.00 0.00 68 1051.6
20260508015111 7 290 0.0 0.0 0.00 0.00 0.00 63 1051.5
20260508014607 8 290 0.0 0.0 0.00 0.00 0.00 68 1051.4
20260508014104 8 290 0.0 0.0 0.00 0.00 0.00 65 1051.2
20260508013559 8 290 0.0 0.0 0.00 0.00 0.00 61 1051.3
20260508013057 8 290 0.0 0.0 0.00 0.00 0.00 61 1051.2
20260508012554 8 290 0.0 0.0 0.00 0.00 0.00 62 1051.3
20260508012051 8 290 0.0 0.0 0.00 0.00 0.00 62 1051.1
20260508011550 8 290 0.0 0.0 0.00 0.00 0.00 60 1051.2
20260508011047 8 290 0.0 0.0 0.00 0.00 0.00 61 1051.1
20260508010543 9 290 0.0 0.0 0.00 0.00 0.00 61 1051.1
20260508010041 10 290 0.0 0.0 0.00 0.00 0.00 58 1050.9
20260508005537 10 290 0.0 0.0 0.00 0.00 0.00 58 1051.0
20260508005034 10 290 0.0 0.0 0.00 0.00 0.00 54 1050.8
20260508004530 11 290 0.0 0.0 0.00 0.00 0.00 53 1050.8
20260508004027 11 290 0.0 0.0 0.00 0.00 0.00 52 1050.7
20260508003523 12 291 0.0 0.0 0.00 0.00 0.00 50 1050.6
20260508003021 12 291 0.0 0.0 0.00 0.00 0.00 51 1050.7
20260508002517 12 291 1.6 3.2 0.00 0.00 0.00 48 1050.6
20260508002015 13 291 0.0 1.6 0.00 0.00 0.00 48 1050.6
20260508001510 13 291 1.6 1.6 0.00 0.00 0.00 48 1050.5
20260508001007 14 291 4.8 6.4 0.00 0.00 0.00 43 1050.4